Home > Weather > Charlottesville > Past weeks

Flag for USA Past Weather in Charlottesville, Virginia, USA — Yesterday and Last 2 Weeks

Now
65 °F

Clear.


Feels Like: 65 °F
Forecast: 63 / 89 °F
Wind: No wind

Location: Charlottesville-Albemarle Airport

Current Time: Jun 27, 2016 at 5:37:56 AM

Latest Report: Jun 27, 2016 at 4:53 AM


Visibility: 10 mi

Pressure: 30.08 "Hg

Humidity: 91%

Dew Point: 62 °F

Location of CharlottesvilleLocation

Past Weather in Charlottesville — Graph

°F

Charlottesville Temperature Yesterday

Maximum temperature yesterday: 84 °F (at 3:53 PM)
Minimum temperature yesterday: 63 °F (at 4:53 AM)
Average temperature yesterday: 74 °F

High & Low Weather Summary for the Past Weeks

 TemperatureHumidityPressure
High93 °F (Jun 16, 3:53 PM)96% (Jun 16, 9:00 PM)30.37 "Hg (Jun 16, 9:00 PM)
Low55 °F (Jun 19, 5:53 AM)21% (Jun 12, 8:53 PM)29.59 "Hg (Jun 16, 7:53 PM)
Average74 °F66%29.99 "Hg
* Reported Jun 12 3:53 AM — Jun 27 3:53 AM, Charlottesville, Weather by CustomWeather, © 2016

Note: Actual official high and low records may vary slightly from our data, if they occured in-between our weather recording intervals... More about our weather records

Advertising

Charlottesville Weather History for the Previous 24 Hours

Scroll right to see more
 ConditionsComfort  
Time TempWeatherWind HumidityBarometerVisibility
3:53 AM
Mon, Jun 27
65 °FClear.No wind87%30.08 "Hg10 mi
2:53 AM64 °FClear.No wind90%30.10 "Hg10 mi
1:53 AM66 °FClear.No wind87%30.12 "Hg10 mi
12:53 AM67 °FPassing clouds.No wind85%30.14 "Hg10 mi
11:53 PM
Sun, Jun 26
70 °FClear.No wind76%30.14 "Hg10 mi
10:53 PM70 °FOvercast.No wind76%30.14 "Hg10 mi
9:53 PM72 °FClear.No wind68%30.11 "Hg10 mi
8:53 PM76 °FSunny.5 mph58%30.09 "Hg10 mi
7:53 PM80 °FSunny.6 mph51%30.10 "Hg10 mi
6:53 PM82 °FSunny.7 mph46%30.11 "Hg10 mi
5:53 PM83 °FSunny.9 mph46%30.13 "Hg10 mi
4:53 PM84 °FSunny.6 mph45%30.15 "Hg10 mi
3:53 PM84 °FSunny.7 mph41%30.16 "Hg10 mi
2:53 PM83 °FSunny.5 mph44%30.18 "Hg10 mi
1:53 PM82 °FSunny.3 mph40%30.20 "Hg10 mi
12:53 PM82 °FSunny.5 mph46%30.21 "Hg10 mi
11:53 AM80 °FSunny.8 mph49%30.22 "Hg10 mi
10:53 AM78 °FSunny.3 mph58%30.22 "Hg10 mi
9:53 AM76 °FSunny.3 mph67%30.23 "Hg10 mi
8:53 AM73 °FSunny.No wind76%30.21 "Hg10 mi
7:53 AM68 °FSunny.No wind87%30.21 "Hg10 mi
6:53 AM64 °FFog.No wind94%30.21 "Hg6 mi
5:53 AM63 °FFog.No wind93%30.22 "Hg4 mi
Weather by CustomWeather, © 2016

See weather overviewHow to use our weather pages